sat.trackr.live / text

‹ back to catalog

QIANFAN-53

NORAD 62254 · 2024-232T

PAYLOAD ACTIVE UNKNOWN

§ Identity

Operator
Country
PRC
Launch date
2024-12-05
Launch site
TAISC
Launch vehicle
Mass (kg)
RCS (m²)

External: N2YO · Heavens-Above · Gunter

§ Orbital elements

Epoch: 2026-05-25T03:59:45.617280Z

Period
106.59 min
Inclination
89.0103°
Eccentricity
0.0016244
Mean motion
13.51009536 rev/d
Perigee alt
1,056.5 km
Apogee alt
1,080.6 km
Semi-major
7,446.7 km
B*
1.3684e-4
RAAN
24.7956°
Arg perigee
81.1232°
Mean anomaly
279.1757°
Rev number
8,997

§ Raw data

QIANFAN-531 62254U 24232T   26145.16650020  .00000101  00000+0  13684-3 0  99962 62254  89.0103  24.7956 0016244  81.1232 279.1757 13.51009536 89973

JSON: /api/v1/satellites/62254 · /tle

For live sub-satellite position, see the globe view (requires WebGL).

§ Visibility from observer

Set your observer location to see the next 7 days of passes ≥ 10°. The values pass through the URL so the page stays shareable.

No JS? Fill the form by hand. The geolocation button needs JavaScript.